Home   Weather   Andorra La Vella   Past weeks

Flag for Andorra Past Weather in Andorra La Vella, Andorra — Yesterday and Last 2 Weeks

Now
41 °F

Light rain. Fog.


Feels Like: 39 °F
Forecast: 13 / 39 °F
Wind: 3 mph from North

Location: Carcassonne Airport

Current Time: Jan 23, 2017 at 9:58:01 am

Latest Report: Jan 23, 2017 at 9:00 am


Visibility: 3 mi

Pressure: 30.18 "Hg (26.59 "Hg at 1031m altitude)

Humidity: 93%

Dew Point: 39 °F

Location of Andorra La VellaLocation

Past Weather in Andorra La Vella — Graph

°F

Andorra La Vella Temperature Yesterday

Maximum temperature yesterday: 43 °F (at 12:00 pm)
Minimum temperature yesterday: 30 °F (at 4:00 am)
Average temperature yesterday: 38 °F

High & Low Weather Summary for the Past Weeks

 TemperatureHumidityPressure
High57 °F (Jan 12, 3:30 pm)100% (Jan 10, 7:00 am)30.48 "Hg (Jan 10, 7:00 am)
Low23 °F (Jan 18, 8:00 am)44% (Jan 21, 3:30 pm)29.89 "Hg (Jan 10, 2:00 pm)
Average39 °F81%30.19 "Hg
* Reported Jan 8 9:00 am — Jan 23 9:00 am, Andorra La Vella, Weather by CustomWeather, © 2017

Note: Actual official high and low records may vary slightly from our data, if they occured in-between our weather recording intervals... More about our weather records

Advertising

Andorra La Vella Weather History for the Previous 24 Hours

Scroll right to see more
 ConditionsComfort  
Time TempWeatherWind HumidityBarometerVisibility
9:00 am
Mon, Jan 23
41 °FLight rain. Fog.3 mph93%30.18 "Hg3 mi
8:30 am41 °FLight rain. Fog.3 mph93%30.15 "Hg3 mi
8:00 am41 °FLight rain. Fog.5 mph93%30.15 "Hg3 mi
7:30 am41 °FLight rain. Fog.3 mph93%30.15 "Hg3 mi
7:00 am41 °FLight rain. Mostly cloudy.6 mph93%30.15 "Hg5 mi
6:30 am41 °FOvercast.7 mph93%30.15 "Hg5 mi
6:00 am41 °FLight rain. Overcast.7 mph93%30.15 "Hg5 mi
5:30 am41 °FOvercast.7 mph93%30.15 "Hg6 mi
5:00 am41 °FRain. Overcast.5 mph93%30.15 "Hg4 mi
4:30 am41 °FLight rain. Overcast.6 mph93%30.15 "HgN/A
4:00 am41 °FMostly cloudy.6 mph93%30.15 "HgN/A
3:30 am41 °FOvercast.5 mph93%30.15 "HgN/A
3:00 am41 °FMostly cloudy.5 mph93%30.15 "HgN/A
2:30 am41 °FMostly cloudy.5 mph93%30.15 "HgN/A
2:00 am39 °FOvercast.3 mph100%30.15 "Hg6 mi
1:30 am39 °FLight rain. Fog.2 mph100%30.15 "Hg3 mi
1:00 am39 °FLight rain. Overcast.N/A100%30.15 "Hg4 mi
12:30 am39 °FLight rain. Overcast.2 mph100%30.18 "Hg4 mi
12:00 am39 °FDrizzle. Mostly cloudy.1 mph100%30.18 "Hg4 mi
11:30 pm
Sun, Jan 22
39 °FDrizzle. Overcast.2 mph100%30.18 "Hg5 mi
11:00 pm39 °FLight rain. Fog.2 mph100%30.18 "Hg3 mi
10:30 pm39 °FLight rain. Overcast.2 mph100%30.15 "Hg4 mi
10:00 pm41 °FLight rain. Overcast.2 mph93%30.15 "Hg4 mi
9:30 pm41 °FLight rain. Overcast.3 mph93%30.15 "HgN/A
9:00 pm41 °FOvercast.3 mph93%30.15 "HgN/A
8:30 pm41 °FOvercast.3 mph93%30.15 "HgN/A
8:00 pm41 °FOvercast.5 mph93%30.15 "HgN/A
7:30 pm41 °FMostly cloudy.3 mph93%30.15 "HgN/A
7:00 pm41 °FLight rain. Partly cloudy.5 mph93%30.15 "Hg4 mi
6:30 pm41 °FRain. Fog.3 mph93%30.15 "Hg3 mi
6:00 pm41 °FLight rain. Overcast.2 mph93%30.15 "Hg4 mi
5:30 pm41 °FLight rain. Overcast.2 mph93%30.15 "HgN/A
5:00 pm41 °FLight rain. Overcast.3 mph93%30.15 "HgN/A
4:30 pm41 °FRain. Fog.6 mph93%30.15 "Hg3 mi
4:00 pm41 °FLight rain. Mostly cloudy.5 mph93%30.15 "HgN/A
3:30 pm41 °FLight rain. Mostly cloudy.5 mph93%30.15 "Hg5 mi
3:00 pm41 °FLight rain. Overcast.3 mph93%30.15 "HgN/A
2:30 pm41 °FLight rain. More clouds than sun.3 mph93%30.15 "HgN/A
2:00 pm41 °FRain. Overcast.2 mph87%30.15 "Hg4 mi
1:30 pm43 °FRain. Mostly cloudy.2 mph87%30.15 "Hg5 mi
1:00 pm43 °FLight rain. Mostly cloudy.No wind81%30.15 "HgN/A
12:30 pm43 °FLight rain. Mostly cloudy.1 mph81%30.18 "HgN/A
12:00 pm43 °FDrizzle. Mostly cloudy.2 mph81%30.18 "HgN/A
11:30 am41 °FOvercast.2 mph87%30.18 "HgN/A
11:00 am39 °FDrizzle. Overcast.3 mph93%30.18 "HgN/A
10:30 am39 °FLight rain. Mostly cloudy.3 mph93%30.18 "Hg4 mi
10:00 am37 °FLight rain. More clouds than sun.No wind87%30.18 "HgN/A
9:30 am36 °FLight rain. Mostly cloudy.2 mph93%30.15 "Hg5 mi
9:00 am36 °FMostly cloudy.1 mph93%30.15 "HgN/A
Weather by CustomWeather, © 2017

See weather overviewHow to use our weather pages